Погода в Белоглинском

Россия / Кабардино-Балкарская Республика     43°27′26″N   44°12′44″E
темп.,
°C
ветер,
м/с
пор.,
м/с
влажн.,
%
обл.,
%
осадки,
мм/ч
давл.,
гПа
погр.,
м
25 февраля, чт
чт2500:00−11всв118931 0.0 103981
03:00−11зсз009335 0.0 103774
06:00−11всв018899 0.0 1037137
09:00−9ссв118399 0.0 1036232
12:00−6ссз117545 0.0 1035346
15:00−3с117035 0.0 1033320
18:00−4ю11817 0.0 103321
21:00−2ююв337537 0.0 103353
26 февраля, пт
пт2600:00−1ю2372100 0.0 103135
03:000ю2276100 0.0 103021
06:00−1ююз2280100 0.0 102921
09:00+1ю3481100 0.0 1028122
12:00+4ю2381100 0.0 1026134
15:00+5ю2275100 0.0 1025231
18:00+2ю3477100 0.0 102649
21:00+2ююв237376 0.0 102622
27 февраля, сб
сб2700:00+2ю337112 0.0 102427
03:00+1ююз22716 0.0 102322
06:00+1ююв22716 0.0 102222
09:00+5ююв226822 0.0 102061
12:00+8вюв23616 0.0 1018326
15:00+9ююв23693 0.0 1016408
18:00+5ююв12800 0.0 101722
21:00+3ю347924 0.0 101744
28 февраля, вс
вс2800:00+3ююв338115 0.0 101532
03:00+2ююв11799 0.0 101522
06:00+1ссв22870 0.0 101523
09:00+2ю129139 0.1 101551
12:00+2св1195100 0.6 101599
15:00+2с2598100 1.8 1015323
18:00+2сз1199100 0.6 101762
21:00+2сз2299100 1.3 101983
1 марта, пн
пн100:00+1ссз3599100 0.9 1021236
03:00+1з0199100 1.2 102261
06:00+1з1299100 0.2 1023108
09:000с2496100 0.6 1025328
12:00+3ссз2477100 0.1 1025678
15:00+4зсз2373100 0.1 1025699
18:00+3зсз128198 0.1 102775
21:00+1зсз118695 0.3 102933